[[{"header":{"parameterUnit":"m.s-1","parameterCategory":1,"la1":30.2991,"la2":30.254,"lo1":-89.0895,"lo2":-89.0444,"dy":0.0017,"dx":0.0017,"nx":28,"ny":28,"refTime":"2023-10-20T09:00:00:Z","depth":0,"parameterNumber":2,"parameterNumberName":"U-component_of_WINDS"},"data":[0,0,0,0,0,0,0,0,0,0,0,0,0,0,0,0,0,0,0,0,0,0,0,0,0,0,0,0,0,0,0,0,0,0,0,0,0,0,0,0,0,0,0,0,0,0,0,0,0,0,0,0,0,0,0,0,0,0,4.7313,4.7313,0,4.74,4.7401,4.7402,4.7377,4.7375,4.7373,4.7372,4.7463,4.7467,4.7471,0,0,0,0,0,0,0,0,0,0,0,0,0,4.713,4.7133,4.7312,4.7314,4.7315,4.74,4.7401,4.7402,4.7377,4.7375,4.7373,4.7371,4.7462,4.7467,4.7472,0,0,0,0,0,0,0,0,0,0,0,0,0,4.7213,4.7135,4.7312,4.7312,4.7313,4.74,4.7401,4.7403,4.7378,4.7375,4.7372,4.737,4.746,4.7466,4.7472,4.7565,0,0,4.7491,4.7494,0,0,0,0,0,0,0,0,4.7208,4.7219,4.7311,4.7313,4.7314,4.7375,4.737,4.7457,4.7379,4.7353,4.7372,4.7369,4.7436,4.7444,4.7467,4.7569,4.7573,4.7492,4.7496,4.7498,4.75,0,0,0,0,0,0,0,4.7202,4.7215,4.7347,4.7313,4.7314,4.731,4.7319,4.7387,4.7409,4.7355,4.7354,4.7364,4.7436,4.7461,4.7469,4.7574,4.7492,4.7497,4.7501,4.7503,4.7764,4.7767,0,0,0,0,0,0,4.7195,4.7211,4.7344,4.735,4.7253,4.7316,4.7326,4.7358,4.7408,4.7413,4.7367,4.7363,4.7452,4.7461,4.7472,4.7588,4.7498,4.7504,4.7508,4.7761,4.7765,4.7769,0,0,0,0,0,0,4.7191,4.7207,4.7341,4.728,4.7297,4.7322,4.7358,4.7361,4.7385,4.7417,4.7421,4.7387,4.745,4.7463,4.7543,4.7591,4.7507,4.7512,4.7757,4.7762,4.7767,4.7818,0,0,0,0,0,0,4.7186,4.7206,4.7239,4.7281,4.73,4.7409,4.7361,4.7365,4.7396,4.7392,4.7437,4.7442,4.7449,4.7534,4.7549,4.7598,4.7517,4.7753,4.776,4.7765,4.7812,4.7824,4.7834,0,0,0,0,0,4.718,4.7249,4.7241,4.7257,4.7342,4.7412,4.7423,4.7429,4.74,4.7435,4.7456,4.744,4.7583,4.7543,4.7559,4.761,4.775,4.7758,4.7765,4.7807,4.7821,4.7834,0,0,0,0,0,0,4.7211,4.7254,4.7246,4.733,4.7368,4.7407,4.7451,4.7443,4.7489,4.7484,4.749,4.7501,4.7584,4.7605,4.7559,4.7706,4.7663,4.7674,4.7689,4.7703,4.7714,4.7708,4.7522,0,0,0,0,0,4.7227,4.7279,4.7314,4.7386,4.7405,4.7426,4.7456,4.7458,4.7497,4.7513,4.7539,4.7579,4.7634,4.7669,4.772,4.7815,4.7827,4.7859,4.787,4.7878,4.7888,4.7947,4.7962,4.7793,4.7792,4.7792,0,0,4.7262,4.7292,4.7324,4.7393,4.7422,4.7479,4.7439,4.7498,4.7541,4.7522,4.7601,4.7622,4.7668,4.7757,4.7798,4.7777,4.7939,4.7888,4.7894,4.79,4.7956,4.7972,4.7986,4.7797,4.7797,4.7796,0,0,4.7355,4.7381,4.7446,4.7478,4.7524,4.7538,4.7554,4.7596,4.761,4.7689,4.7678,4.7731,4.7822,4.7857,4.7887,4.8001,4.799,4.8017,4.8074,4.8131,4.8144,4.8156,4.8202,4.8217,4.8027,4.8027,4.8027,0,4.7393,4.7475,4.7481,4.7544,4.7577,4.7564,4.7633,4.7663,4.7723,4.7747,4.7723,4.7843,4.7872,4.7973,4.8001,4.8024,4.8046,4.8012,4.8142,4.8154,4.8165,4.8209,4.8225,4.803,4.803,4.8029,4.8029,0,4.7523,4.7581,4.7628,4.7689,4.7727,4.7792,4.7811,4.7849,4.785,4.7867,4.7952,4.7987,4.8048,4.8072,4.8071,4.8175,4.8161,4.814,4.8097,4.8185,4.8226,4.8242,4.8035,4.8034,4.8033,4.8032,0,0,4.7634,4.7701,4.7719,4.7749,4.7802,4.7848,4.7915,4.7976,4.8011,4.8055,4.8114,4.8195,4.8178,4.8211,4.8216,4.8265,4.836,4.8238,4.8239,4.8263,4.8482,4.85,4.8519,4.8353,4.8356,4.8358,4.848,0,4.7735,4.7852,4.7862,4.7969,4.8026,4.8018,4.8077,4.8118,4.8138,4.8191,4.8213,4.8273,4.8242,4.8264,4.8312,4.8338,4.8405,4.8329,4.8412,4.8414,4.8403,4.8539,4.8557,4.867,4.8495,4.8498,4.85,0,4.7866,4.7917,4.803,4.8081,4.8105,4.8158,4.8218,4.8268,4.8316,4.8327,4.8369,4.8368,4.8441,4.8395,4.8499,4.8448,4.8483,4.8501,4.8506,4.8515,4.8464,4.8556,4.8705,4.8723,4.8524,4.8522,4.8521,0,4.7942,4.8038,4.812,4.8145,4.8205,4.8244,4.8271,4.8316,4.8354,4.8407,4.8433,4.8493,4.8527,4.8576,4.8593,4.8557,4.8698,4.8652,4.8713,4.8713,4.8744,4.8742,4.8904,4.8762,4.8762,4.8761,4.8761,0,4.8055,4.8125,4.8155,4.8206,4.8287,4.8299,4.838,4.8405,4.8447,4.8505,4.85,4.8555,4.8574,4.8633,4.8647,4.8734,4.8748,4.8763,4.8766,4.8764,4.8763,4.8788,4.8782,4.8766,4.8765,4.8764,4.8763,0,4.8153,4.8175,4.8265,4.8316,4.8331,4.8389,4.8434,4.8484,4.8505,4.8579,4.8597,4.8631,4.8701,4.8723,4.8806,4.8817,4.892,4.8914,4.8904,4.8905,4.8966,4.8961,4.9151,4.9179,4.9016,4.9018,4.9019,0,4.8224,4.8279,4.8338,4.8376,4.8406,4.8467,4.8508,4.8524,4.8566,4.8629,4.8674,4.8743,4.88,4.8913,4.8946,4.9012,4.901,4.9073,4.902,4.9019,4.9016,4.9014,4.9022,4.9083,4.9085,4.9086,4.9087,0,4.835,4.836,4.8417,4.8481,4.853,4.858,4.8629,4.8661,4.8686,4.8734,4.8807,4.8851,4.8939,4.901,4.9078,4.9109,4.9104,4.9104,4.9122,4.9122,4.9115,4.9124,4.8934,4.9099,4.9098,4.9097,4.9096,4.9096,4.8439,4.849,4.8541,4.8607,4.8647,4.8694,4.8746,4.8775,4.8836,4.8909,4.8916,4.8995,4.9048,4.914,4.9174,4.9239,4.9221,4.9246,4.9253,4.926,4.9267,4.9103,4.9251,4.925,4.925,4.925,4.925,0,4.8569,4.8602,4.8663,4.8734,4.8787,4.8778,4.8834,4.888,4.895,4.8999,4.9056,4.9143,4.9213,4.9254,4.9325,4.937,4.937,4.9388,4.9386,4.9394,4.9276,4.9255,4.9387,4.9387,4.9387,4.9387,4.9387,4.9387,4.8642,4.8729,4.8747,4.8855,4.8889,4.8967,4.9,4.9046,4.9086,4.9183,4.9242,4.9268,4.9316,4.9392,4.9458,4.9468,4.9496,4.9517,4.9527,4.9416,4.9402,4.9388,4.9369,4.9523,4.9523,4.964,4.9641,4.9642]},{"header":{"parameterUnit":"m.s-1","parameterCategory":1,"la1":30.2991,"la2":30.254,"lo1":-89.0895,"lo2":-89.0444,"dy":0.0017,"dx":0.0017,"nx":28,"ny":28,"refTime":"2023-10-20T09:00:00:Z","depth":0,"parameterNumber":3,"parameterNumberName":"V-component_of_WINDS"},"data":[0,0,0,0,0,0,0,0,0,0,0,0,0,0,0,0,0,0,0,0,0,0,0,0,0,0,0,0,0,0,0,0,0,0,0,0,0,0,0,0,0,0,0,0,0,0,0,0,0,0,0,0,0,0,0,0,0,0,1.2277,1.2278,0,1.2432,1.2434,1.2436,1.2436,1.2434,1.2432,1.243,1.2594,1.26,1.2606,0,0,0,0,0,0,0,0,0,0,0,0,0,1.1982,1.1987,1.2276,1.2278,1.228,1.2432,1.2434,1.2436,1.2436,1.2434,1.2432,1.2429,1.2592,1.2599,1.2607,0,0,0,0,0,0,0,0,0,0,0,0,0,1.2121,1.1989,1.2276,1.2298,1.2302,1.2432,1.2434,1.2437,1.2437,1.2434,1.2431,1.2428,1.259,1.2599,1.2608,1.2727,0,0,1.2637,1.2641,0,0,0,0,0,0,0,0,1.2113,1.2132,1.2293,1.2297,1.2301,1.2412,1.239,1.2534,1.2438,1.2386,1.243,1.2427,1.2536,1.255,1.2586,1.2734,1.2742,1.2637,1.2643,1.2647,1.265,0,0,0,0,0,0,0,1.2103,1.2125,1.2338,1.2296,1.2301,1.2302,1.2318,1.2418,1.2476,1.239,1.2391,1.2409,1.2538,1.2577,1.259,1.2744,1.2637,1.2646,1.2651,1.2655,1.2996,1.2999,0,0,0,0,0,0,1.2089,1.2117,1.2333,1.2343,1.2198,1.231,1.2328,1.2379,1.2475,1.2487,1.2411,1.2408,1.2562,1.2579,1.2595,1.2739,1.2647,1.2656,1.2661,1.2992,1.2997,1.3,0,0,0,0,0,0,1.2082,1.2108,1.2327,1.223,1.2258,1.2318,1.2376,1.2384,1.2423,1.2491,1.2502,1.244,1.256,1.2582,1.2693,1.2745,1.266,1.2669,1.2988,1.2994,1.2998,1.3028,0,0,0,0,0,0,1.2074,1.2106,1.2151,1.2231,1.2263,1.2422,1.2379,1.2389,1.2439,1.2436,1.2521,1.2532,1.256,1.2679,1.2703,1.2756,1.2676,1.2984,1.2991,1.2997,1.3023,1.3033,1.3043,0,0,0,0,0,1.2063,1.2154,1.2153,1.2179,1.2321,1.2424,1.2443,1.2472,1.2443,1.2489,1.2532,1.2529,1.2735,1.2691,1.2717,1.2774,1.2981,1.2989,1.2996,1.3018,1.3031,1.3042,0,0,0,0,0,0,1.2081,1.2165,1.2165,1.2284,1.2347,1.2424,1.2483,1.2485,1.2558,1.2553,1.2587,1.2606,1.2716,1.2757,1.2705,1.2893,1.2855,1.2868,1.2862,1.2876,1.2885,1.2873,1.2684,0,0,0,0,0,1.2098,1.2174,1.2245,1.2343,1.2374,1.2423,1.247,1.2486,1.2553,1.258,1.2632,1.2698,1.2777,1.2829,1.2906,1.3029,1.3046,1.3081,1.3091,1.3099,1.311,1.3176,1.3191,1.3026,1.3025,1.3025,0,0,1.2135,1.2191,1.2237,1.2348,1.2398,1.2477,1.2446,1.2531,1.2589,1.2594,1.27,1.2741,1.2817,1.2933,1.2988,1.297,1.3159,1.3109,1.3114,1.3121,1.3185,1.3201,1.3214,1.3031,1.303,1.3029,0,0,1.2242,1.2293,1.2379,1.243,1.2506,1.2538,1.2558,1.2636,1.2662,1.2769,1.2773,1.2844,1.2981,1.3034,1.3079,1.3205,1.3204,1.3229,1.3281,1.3345,1.3358,1.337,1.3413,1.3428,1.324,1.324,1.324,0,1.2279,1.2396,1.2424,1.2508,1.2556,1.2562,1.265,1.2698,1.2796,1.283,1.2809,1.2979,1.3031,1.3159,1.3189,1.3226,1.325,1.3219,1.3354,1.3366,1.3377,1.3418,1.3435,1.3242,1.3242,1.3242,1.3242,0,1.2437,1.2518,1.258,1.2671,1.2727,1.2813,1.2853,1.2907,1.2918,1.2952,1.3061,1.3123,1.3211,1.3244,1.3257,1.3374,1.336,1.3346,1.3308,1.3395,1.3434,1.345,1.3246,1.3245,1.3244,1.3244,0,0,1.256,1.2664,1.2686,1.2727,1.2811,1.2875,1.2961,1.3045,1.3089,1.3157,1.3229,1.3344,1.3331,1.3382,1.3401,1.3457,1.355,1.3436,1.3438,1.3453,1.368,1.3688,1.3706,1.3551,1.3554,1.3556,1.3673,0,1.2674,1.2825,1.2852,1.2984,1.3058,1.3064,1.3139,1.3199,1.3233,1.3302,1.334,1.342,1.3398,1.3428,1.3484,1.3527,1.3596,1.3519,1.3618,1.3621,1.3596,1.3727,1.3737,1.3844,1.3689,1.3692,1.3693,0,1.2828,1.2897,1.3035,1.3107,1.314,1.3206,1.3285,1.3351,1.3419,1.344,1.3495,1.3508,1.3597,1.3556,1.3679,1.3626,1.3668,1.3695,1.37,1.3709,1.3661,1.3738,1.3879,1.3895,1.3718,1.3716,1.3715,0,1.29,1.3028,1.3127,1.3162,1.3249,1.3295,1.3334,1.3399,1.3447,1.3517,1.3549,1.3629,1.3672,1.3734,1.3767,1.3734,1.3887,1.3849,1.3906,1.3905,1.3937,1.3935,1.4085,1.3968,1.3967,1.3967,1.3967,0,1.3024,1.3108,1.316,1.3221,1.3315,1.3346,1.3439,1.3477,1.3534,1.3602,1.3614,1.3678,1.3719,1.3789,1.3816,1.3912,1.3933,1.3952,1.3957,1.395,1.3947,1.3976,1.3969,1.3971,1.397,1.397,1.3969,0,1.312,1.3159,1.3266,1.3339,1.336,1.3426,1.3488,1.3548,1.3581,1.3667,1.369,1.3743,1.3826,1.3865,1.3969,1.3987,1.4096,1.4098,1.4072,1.4074,1.4128,1.4121,1.4302,1.4326,1.4194,1.4195,1.4196,0,1.3196,1.326,1.334,1.3385,1.3424,1.3499,1.3548,1.358,1.3631,1.3712,1.3762,1.3844,1.3912,1.4044,1.4093,1.4171,1.4174,1.4232,1.4186,1.4175,1.4172,1.4167,1.4173,1.4239,1.4241,1.4242,1.4243,0,1.3325,1.334,1.341,1.3486,1.3544,1.3606,1.3667,1.3704,1.3747,1.3803,1.3887,1.394,1.4044,1.4126,1.4207,1.4248,1.4252,1.4257,1.4274,1.4265,1.4247,1.4255,1.4092,1.4252,1.4251,1.425,1.425,1.425,1.3412,1.3469,1.3532,1.3609,1.3658,1.3715,1.3773,1.3813,1.3883,1.3969,1.3985,1.4074,1.4139,1.4249,1.4292,1.4362,1.4349,1.4374,1.438,1.4385,1.4387,1.4237,1.4377,1.4377,1.4377,1.4377,1.4377,0,1.354,1.3581,1.3651,1.3735,1.3795,1.3793,1.386,1.3911,1.3988,1.4048,1.4114,1.421,1.4289,1.4343,1.4423,1.4468,1.4472,1.4488,1.4484,1.4493,1.4395,1.4371,1.4483,1.4483,1.4483,1.4483,1.4483,1.4483,1.3613,1.3708,1.3731,1.385,1.3891,1.3977,1.4015,1.4067,1.4114,1.422,1.4285,1.4319,1.4377,1.4461,1.4533,1.4547,1.4575,1.4591,1.4604,1.4511,1.45,1.4489,1.4467,1.4597,1.4597,1.4696,1.4696,1.4697]}]]